Home   Weather   Tangier   Past weeks

Flag for Morocco Past Weather in Tangier, Morocco — Yesterday and Last 2 Weeks

Now
57 °F

Passing clouds.


Feels Like: 55 °F
Forecast: 55 / 66 °F
Wind: 10 mph from East

Location: Tanger Aerodrome

Current Time: Dec 11, 2016 at 12:18:20 am

Latest Report: Dec 10, 2016 at 11:30 pm


Visibility: N/A

Pressure: 30.27 "Hg

Humidity: 77%

Dew Point: 50 °F

Location of TangierLocation

Past Weather in Tangier — Graph

°F

Tangier Temperature Yesterday

Maximum temperature yesterday: 68 °F (at 11:30 am)
Minimum temperature yesterday: 57 °F (at 4:30 am)
Average temperature yesterday: 61 °F

High & Low Weather Summary for the Past Weeks

 TemperatureHumidityPressure
High70 °F (Dec 6, 1:30 pm)94% (Nov 26, 12:30 am)30.39 "Hg (Nov 26, 12:30 am)
Low52 °F (Nov 28, 6:00 am)56% (Dec 8, 11:30 am)29.65 "Hg (Nov 26, 2:30 am)
Average61 °F79%30.04 "Hg
* Reported Nov 25 11:00 pm — Dec 10 11:00 pm, Tangier, Weather by CustomWeather, © 2016

Note: Actual official high and low records may vary slightly from our data, if they occured in-between our weather recording intervals... More about our weather records

Advertising

Tangier Weather History for the Previous 24 Hours

Scroll right to see more
 ConditionsComfort  
Time TempWeatherWind HumidityBarometerVisibility
11:00 pm
Sat, Dec 10
57 °FPassing clouds.9 mph77%30.30 "HgN/A
10:30 pm57 °FPassing clouds.9 mph82%30.30 "HgN/A
10:00 pm57 °FPassing clouds.7 mph82%30.30 "HgN/A
9:30 pm57 °FPassing clouds.5 mph77%30.30 "HgN/A
9:00 pm59 °FPassing clouds.9 mph77%30.30 "HgN/A
8:30 pm59 °FPassing clouds.8 mph77%30.30 "HgN/A
8:00 pm59 °FPassing clouds.9 mph77%30.30 "HgN/A
7:30 pm59 °FPassing clouds.9 mph77%30.30 "HgN/A
7:00 pm59 °FPassing clouds.6 mph72%30.30 "HgN/A
6:30 pm61 °FPassing clouds.9 mph72%30.30 "HgN/A
6:00 pm61 °FPassing clouds.10 mph72%30.30 "HgN/A
5:30 pm63 °FPassing clouds.12 mph68%30.30 "HgN/A
5:00 pm63 °FPassing clouds.13 mph68%30.30 "HgN/A
4:30 pm64 °FPassing clouds.15 mph64%30.30 "HgN/A
4:00 pm66 °FPassing clouds.15 mph60%30.30 "HgN/A
3:30 pm66 °FPassing clouds.15 mph64%30.30 "HgN/A
3:00 pm68 °FPassing clouds.17 mph56%30.30 "HgN/A
2:30 pm68 °FPassing clouds.17 mph56%30.30 "HgN/A
2:00 pm68 °FPassing clouds.16 mph60%30.30 "HgN/A
1:30 pm68 °FPassing clouds.17 mph60%30.30 "HgN/A
1:00 pm68 °FPassing clouds.15 mph60%30.30 "HgN/A
12:30 pm68 °FPassing clouds.17 mph60%30.33 "HgN/A
12:00 pm68 °FPassing clouds.15 mph60%30.33 "HgN/A
11:30 am68 °FPassing clouds.15 mph60%30.33 "HgN/A
11:00 am66 °FPassing clouds.17 mph60%30.36 "HgN/A
10:30 am66 °FPassing clouds.15 mph64%30.36 "HgN/A
10:00 am64 °FPassing clouds.15 mph68%30.36 "HgN/A
9:00 am61 °FPassing clouds.13 mph77%30.33 "HgN/A
8:30 am59 °FPassing clouds.13 mph82%30.33 "HgN/A
8:00 am59 °FPassing clouds.10 mph82%30.33 "HgN/A
7:30 am57 °FPassing clouds.10 mph82%30.33 "HgN/A
7:00 am59 °FPassing clouds.12 mph82%30.30 "HgN/A
6:30 am57 °FPassing clouds.10 mph82%30.30 "HgN/A
6:00 am59 °FPassing clouds.13 mph82%30.30 "HgN/A
5:30 am59 °FPassing clouds.13 mph82%30.30 "HgN/A
5:00 am59 °FPassing clouds.12 mph82%30.30 "HgN/A
4:30 am57 °FPassing clouds.9 mph88%30.33 "HgN/A
4:00 am59 °FPassing clouds.12 mph82%30.33 "HgN/A
3:30 am59 °FPassing clouds.14 mph82%30.33 "HgN/A
3:00 am59 °FPassing clouds.12 mph82%30.33 "HgN/A
2:30 am59 °FPassing clouds.12 mph82%30.33 "HgN/A
2:00 am59 °FPassing clouds.13 mph82%30.33 "HgN/A
1:30 am59 °FPassing clouds.13 mph82%30.33 "HgN/A
1:00 am59 °FPassing clouds.13 mph82%30.33 "HgN/A
12:30 am59 °FPassing clouds.12 mph82%30.36 "HgN/A
12:00 am61 °FPassing clouds.14 mph77%30.36 "HgN/A
Weather by CustomWeather, © 2016

See weather overviewHow to use our weather pages